FW9693 Weather Reports


time (UTC)temp
F
wind
direction
speed
knots
gust
knots
rain 1hr
in
rain 24hr
in
rain mn
in
humidity
%
barometer
mb
20260510180015 83 346 25.2 33.9 0.00 0.00 0.00 37 1005.5
20260510174514 84 31 21.7 33.0 0.00 0.00 0.00 36 1005.5
20260510173012 84 336 21.7 32.2 0.00 0.00 0.00 35 1005.3
20260510171511 84 335 25.2 32.2 0.00 0.00 0.00 31 1004.9
20260510170013 85 336 26.1 33.0 0.00 0.00 0.00 21 1004.7
20260510164512 85 326 24.3 31.3 0.00 0.00 0.00 20 1004.6
20260510163013 83 326 25.2 32.2 0.00 0.00 0.00 21 1004.7
20260510161510 81 312 23.5 31.3 0.00 0.00 0.00 22 1004.5
20260510160011 81 296 23.5 28.7 0.00 0.00 0.00 23 1004.3
20260510154510 81 315 23.5 29.5 0.00 0.00 0.00 23 1003.9
20260510153009 82 273 18.2 25.2 0.00 0.00 0.00 23 1003.8
20260510151508 82 288 13.9 21.7 0.00 0.00 0.00 23 1003.7
20260510150009 80 282 12.2 18.2 0.00 0.00 0.00 27 1003.7
20260510144510 77 234 2.6 7.0 0.00 0.00 0.00 38 1003.6
20260510143009 75 121 4.3 7.0 0.00 0.00 0.00 48 1003.4
20260510141508 74 97 4.3 7.8 0.00 0.00 0.00 52 1003.3
20260510140007 72 118 6.1 7.8 0.00 0.00 0.00 54 1003.0
20260510134506 71 115 4.3 6.1 0.00 0.00 0.00 58 1002.9
20260510133005 69 138 6.1 7.8 0.00 0.00 0.00 61 1002.6
20260510131505 67 120 7.0 10.4 0.00 0.00 0.00 64 1002.5
20260510130006 66 131 7.8 11.3 0.00 0.00 0.00 66 1002.3
20260510124506 65 130 7.8 10.4 0.00 0.00 0.00 66 1002.2
20260510123006 65 135 7.0 9.6 0.00 0.00 0.00 66 1002.0
20260510121504 65 123 7.8 10.4 0.00 0.00 0.00 64 1001.7
20260510120001 66 123 8.7 10.4 0.00 0.00 0.00 62 1001.6
20260510114503 66 121 7.0 8.7 0.00 0.00 0.00 60 1001.5
20260510113103 66 115 7.0 8.7 0.00 0.00 0.00 59 1001.6
20260510113001 66 117 7.0 8.7 0.00 0.00 0.00 59 1001.5
20260510111602 66 119 7.8 9.6 0.00 0.00 0.00 58 1001.5
20260510110058 66 121 8.7 11.3 0.00 0.00 0.00 56 1001.4
20260510104556 67 124 8.7 10.4 0.00 0.00 0.00 53 1001.3
20260510103054 67 115 7.8 10.4 0.00 0.00 0.00 51 1001.2
20260510101559 67 120 8.7 10.4 0.00 0.00 0.00 51 1001.2
20260510100125 67 117 9.6 12.2 0.00 0.00 0.00 49 1001.1
20260510094557 67 120 7.8 9.6 0.00 0.00 0.00 46 1001.2
20260510093054 67 121 7.8 10.4 0.00 0.00 0.00 45 1001.0
20260510091554 68 128 8.7 13.9 0.00 0.00 0.00 41 1000.8
20260510090047 68 134 7.8 11.3 0.00 0.00 0.00 40 1001.0
20260510084544 69 135 8.7 11.3 0.00 0.00 0.00 39 1001.1
20260510083046 69 139 8.7 12.2 0.00 0.00 0.00 38 1001.1
20260510081545 69 137 9.6 11.3 0.00 0.00 0.00 37 1001.3
20260510080040 70 129 8.7 10.4 0.00 0.00 0.00 35 1001.5
20260510074539 71 139 8.7 11.3 0.00 0.00 0.00 33 1001.6
20260510073033 73 137 9.6 12.2 0.00 0.00 0.00 31 1001.6
20260510071538 74 150 10.4 14.8 0.00 0.00 0.00 30 1001.6
20260510070027 74 155 11.3 14.8 0.00 0.00 0.00 30 1001.6
20260510064523 75 155 10.4 14.8 0.00 0.00 0.00 28 1001.8
20260510063024 76 165 13.0 15.6 0.00 0.00 0.00 27 1001.7
20260510061534 77 182 13.0 17.4 0.00 0.00 0.00 27 1001.8
20260510060016 78 169 14.8 20.0 0.00 0.00 0.00 26 1001.8
20260510054513 79 167 16.5 22.6 0.00 0.00 0.00 25 1001.8
20260510053010 80 167 18.2 22.6 0.00 0.00 0.00 24 1001.8
20260510051508 80 170 16.5 20.9 0.00 0.00 0.00 24 1001.8
20260510050006 80 169 15.6 20.0 0.00 0.00 0.00 23 1001.9
20260510044504 81 165 19.1 22.6 0.00 0.00 0.00 23 1001.9
20260510043001 81 162 17.4 23.5 0.00 0.00 0.00 22 1001.8
20260510041559 82 156 16.5 20.9 0.00 0.00 0.00 22 1001.8
20260510034605 82 154 14.8 18.2 0.00 0.00 0.00 20 1001.5
20260510033113 83 142 13.9 19.1 0.00 0.00 0.00 19 1001.4
20260510031552 84 146 13.9 19.1 0.00 0.00 0.00 17 1001.3
20260510030051 85 157 13.9 18.2 0.00 0.00 0.00 15 1001.1
20260510024555 86 144 13.9 17.4 0.00 0.00 0.00 14 1001.0
20260510023046 86 149 11.3 13.0 0.00 0.00 0.00 13 1000.8
20260510021544 86 144 9.6 11.3 0.00 0.00 0.00 13 1000.6
20260510020046 88 147 8.7 10.4 0.00 0.00 0.00 12 1000.5
20260510014543 89 146 8.7 12.2 0.00 0.00 0.00 12 1000.3
20260510013042 90 144 8.7 13.0 0.00 0.00 0.00 11 1000.1
20260510011551 92 146 7.8 12.2 0.00 0.00 0.00 9 1000.1
20260510010043 92 173 7.0 10.4 0.00 0.00 0.00 9 1000.1
20260510004545 93 153 9.6 16.5 0.00 0.00 0.00 9 1000.1
20260510003100 93 148 7.8 13.9 0.00 0.00 0.00 9 1000.1
20260510001542 93 153 11.3 14.8 0.00 0.00 0.00 9 1000.2
20260510000046 93 146 10.4 14.8 0.00 0.00 0.00 10 1000.2
20260509234558 94 117 3.5 7.8 0.00 0.00 0.00 9 1000.4
20260509233041 94 26 0.9 5.2 0.00 0.00 0.00 8 1000.5
20260509231548 93 219 7.8 10.4 0.00 0.00 0.00 9 1000.7
20260509230034 93 200 6.1 15.6 0.00 0.00 0.00 9 1000.8
20260509224532 94 137 3.5 7.8 0.00 0.00 0.00 9 1000.9
20260509223029 94 243 2.6 10.4 0.00 0.00 0.00 9 1001.1
20260509221526 94 214 5.2 11.3 0.00 0.00 0.00 10 1001.2
20260509220026 93 86 6.1 9.6 0.00 0.00 0.00 9 1001.3
20260509214522 93 169 10.4 14.8 0.00 0.00 0.00 10 1001.6
20260509213020 93 201 6.1 11.3 0.00 0.00 0.00 9 1001.8
20260509211516 93 170 11.3 15.6 0.00 0.00 0.00 10 1002.1
20260509210021 93 178 11.3 17.4 0.00 0.00 0.00 9 1002.3
20260509204510 92 205 5.2 13.9 0.00 0.00 0.00 10 1002.6
20260509203009 91 188 7.0 14.8 0.00 0.00 0.00 10 1003.0
20260509201508 91 247 2.6 12.2 0.00 0.00 0.00 11 1003.4
20260509200007 91 158 13.0 16.5 0.00 0.00 0.00 11 1003.5
20260509194600 91 157 14.8 17.4 0.00 0.00 0.00 11 1003.6
20260509194502 91 173 10.4 20.0 0.00 0.00 0.00 11 1003.6
20260509193057 90 153 2.6 12.2 0.00 0.00 0.00 11 1003.9
20260509191553 90 189 10.4 13.9 0.00 0.00 0.00 13 1004.0
20260509190051 89 191 8.7 16.5 0.00 0.00 0.00 14 1004.2
20260509184548 89 198 9.6 15.6 0.00 0.00 0.00 15 1004.5
20260509183111 89 171 7.8 13.9 0.00 0.00 0.00 16 1004.7
20260509181600 88 158 8.7 18.2 0.00 0.00 0.00 17 1005.0